Regional Weather Roundup
Issued by NWS Newport/Morehead, NC

Current Version | Previous Version | Text Only | Print | Product List | Glossary On
Versions: 1 2 3 4 5 6 7 8 9 10 11 12 13 14 15 16 17 18 19 20 21 22 23 24 25 26 27 28 29 30 31 32 33 34 35 36 37 38 39 40 41 42 43 44 45 46 47 48 49 50
000 ASUS42 KMHX 282010 RWRMHX WEATHER ROUNDUP FOR EASTERN NORTH CAROLINA NATIONAL WEATHER SERVICE NEWPORT/MOREHEAD CITY NC 400 PM EDT THU AUG 28 2014 NOTE: "FAIR" INDICATES FEW OR NO CLOUDS BELOW 12,000 FEET WITH NO SIGNIFICANT WEATHER AND/OR OBSTRUCTIONS TO VISIBILITY NCZ015>017-031-032-045>047-102-103-282100- NORTH COAST CITY SKY/WX TMP DP RH WIND PRES REMARKS EDENTON MOSUNNY 87 72 61 SW7 29.94S ELIZABETH CITY MOSUNNY 88 72 58 VRB3 29.93F KITTY HAWK CLEAR 81 71 71 NE5 29.94S MANTEO MOSUNNY 83 74 74 NE8 29.95S $$ NCZ045>047-081-094-103-104-282100- CENTRAL COAST CITY SKY/WX TMP DP RH WIND PRES REMARKS FRISCO MOSUNNY 84 72 67 SW9 29.95S SWANQUARTER N/A 90 N/A N/A SW6 29.91S $$ NCZ095-097-098-100-101-282100- SOUTHERN COAST CITY SKY/WX TMP DP RH WIND PRES REMARKS BEAUFORT SUNNY 85 69 58 SW13 29.96S CEDAR ISLAND N/A 90 N/A N/A SW1 30.00S JACKSONVILLE SUNNY 90 67 46 SW6 29.94F NEWPORT NOT AVBL PINEY ISLAND CLEAR 91 68 46 SW6 29.94F WILMINGTON SUNNY 91 63 39 W7 29.95F $$ NCZ011>013-027>030-043-044-078>080-089-090>093-098-282100- COASTAL PLAIN CITY SKY/WX TMP DP RH WIND PRES REMARKS AHOSKIE SUNNY 85 73 67 CALM 29.94S CLINTON SUNNY 93 71 49 SW3 29.95S HX 100 ELIZABETHTOWN SUNNY 92 60 34 S3 29.96S GOLDSBORO SUNNY 91 76 61 W9 29.93F HX 102 GREENVILLE MOSUNNY 90 72 55 NW3 29.96F HAVELOCK SUNNY 92 66 42 MISG 29.95F KENANSVILLE SUNNY 91 66 44 W6 29.95F KINSTON SUNNY 91 70 49 W3 29.95F NEW BERN SUNNY 93 68 43 W7 29.95F RICHLANDS SUNNY 93 68 43 SW7 29.95S ROANOKE RAPIDS NOT AVBL ROCKY MOUNT MOSUNNY 89 71 55 SW6 29.95F WASHINGTON MOSUNNY 88 70 55 CALM 29.94F WHITEVILLE SUNNY 90 65 42 SW6 29.96F $$ AMZ130-135-150-152-154-156-158-170-250-252-270-ANZ085-086-088-633-658-670-282100- MARINE OBSERVATIONS STATION/POSITION TIME TEMP WIND PRES WAVE SWELL AIR SEA DIR/SP/G HT/PER HT/PER (UTC) (F) (DEG/KT/KT) (MB) (FT/S) (FT/S) CHESAPEAKE LIGHT 1900 80 340/ 5/ 6 1014.9 BUOY 44014 2000 76 76 360/ 8/ 10 1013.5 4/11 3/11 DUCK 2000 77 78 60/ 8/ 9 1013.4 2E DUCK 2000 N/A 3/11 2/11 OREGON INLET 2000 80 78 20/ 12/ 15 1013.8 BUOY 44095 2000 77 N/A 3/11 2/11 20E OREGON INLET NOT AVBL HATTERAS CG 2000 84 79 220/ 8/ 13 1014.7 DIAMOND BUOY 2000 82 240/ 12/ 14 1014.2 4/10 3/10 CAPE LOOKOUT 1900 81 230/ 11/ 13 1014.6 BEAUFORT LAB 2000 83 80 210/ 9/ 12 1014.0 30 SE NEW RIVER 2000 81 81 240/ 14/ 16 1015.2 4/10 3/10 5 SE WRIGHTSVILL 2000 79 81 220/ 16/ 19 N/A BUOY 41002 1901 80 83 230/ 2/ 4 1016.9 6/ 8 5/ 8 BUOY 41004 2000 81 84 230/ 6/ 8 1015.7 4/11 3/11 $$

USA.gov is the U.S. government's official web portal to all federal, state and local government web resources and services.